Date String (YYYY-MM-DD hh:mm:ss) UTC,Instrument flags,absolute air pressure of the measurement (hPa),sample flow rate (lpm),inlet stack bypass flow (lpm),air temperature of the measurement (°C),ambient temperature measured by the external sensor (°C),aerosol sample conditioner tube jacket temperature (°C),OPC LED temperature (°C),internal box temperature (°C),relative humidity of the measurement (%),span deviation,mass concentration of particles derived from Lorenz-Mie calculation of OPC scattering (μg/m³),mass concentration of particles derived from Lorenz-Mie calculation of OPC scattering (μg/m³),mass concentration of particles derived from Lorenz-Mie calculation of OPC scattering (μg/m³)
DateTimeUTC,F1_M11,P_M11,Q1_M11,Q2_M11,T1_M11,T2_M11,T3_M11,T4_M11,T5_M11,U1_M11,ZSPAN_M11,X0_M11,X2_M11,X1_M11
2023-11-04 13:00:00,SystemResetWarning,0834.4,5.00,000.00,025.9,024.7,000.0,034.4,027.3,18.3,0000.0,0008.27,0003.11,0002.13
2023-11-04 13:01:00,SystemResetWarning,0834.4,5.00,000.00,025.9,024.7,000.0,034.4,027.3,18.3,0000.0,0008.43,0003.14,0002.10
2023-11-04 13:02:00,SystemResetWarning,0834.4,5.00,000.00,025.9,024.7,000.0,034.3,027.2,18.5,0000.0,0007.99,0003.08,0002.09
2023-11-04 13:03:00,SystemResetWarning,0834.5,4.98,000.00,025.9,024.6,000.0,034.3,027.2,18.0,0000.0,0007.73,0003.10,0002.12
2023-11-04 13:04:00,SystemResetWarning,0834.4,5.00,000.00,025.9,024.6,000.0,034.3,027.2,17.5,0000.0,0007.65,0003.15,0002.16
2023-11-04 13:05:00,SystemResetWarning,0834.4,5.00,000.00,025.8,024.6,000.0,034.3,027.2,17.7,0000.0,0007.62,0003.17,0002.21
2023-11-04 13:06:00,SystemResetWarning,0834.3,5.01,000.00,025.8,024.6,000.0,034.3,027.2,17.6,0000.0,0007.68,0003.18,0002.24
2023-11-04 13:07:00,SystemResetWarning,0834.4,5.00,000.00,025.8,024.6,000.0,034.3,027.2,17.3,0000.0,0007.76,0003.21,0002.25
2023-11-04 13:08:00,SystemResetWarning,0834.4,5.00,000.00,025.8,024.6,000.0,034.3,027.2,17.1,0000.0,0007.01,0003.19,0002.22
2023-11-04 13:09:00,SystemResetWarning,0834.5,5.00,000.00,025.8,024.6,000.0,034.3,027.2,16.6,0000.0,0006.82,0003.15,0002.17
2023-11-04 13:10:00,SystemResetWarning,0834.4,5.00,000.00,025.8,024.6,000.0,034.3,027.2,16.7,0000.0,0007.40,0003.09,0002.13
2023-11-04 13:11:00,SystemResetWarning,0834.5,5.00,000.00,025.8,024.6,000.0,034.3,027.2,17.2,0000.0,0007.18,0003.00,0002.10
2023-11-04 13:12:00,SystemResetWarning,0834.5,5.00,000.00,025.8,024.6,000.0,034.3,027.1,17.8,0000.0,0008.01,0002.85,0002.07
2023-11-04 13:13:00,SystemResetWarning,0834.5,4.99,000.00,025.8,024.6,000.0,034.3,027.1,18.1,0000.0,0008.39,0002.81,0002.06
2023-11-04 13:14:00,SystemResetWarning,0834.5,4.99,000.00,025.8,024.6,000.0,034.2,027.1,18.4,0000.0,0008.46,0002.80,0002.06
2023-11-04 13:15:00,SystemResetWarning,0834.5,5.00,000.00,025.8,024.5,000.0,034.2,027.1,18.0,0000.0,0009.19,0002.85,0002.08
2023-11-04 13:16:00,SystemResetWarning,0834.5,5.01,000.00,025.8,024.5,000.0,034.2,027.1,17.3,0000.0,0009.84,0002.85,0002.06
2023-11-04 13:17:00,SystemResetWarning,0834.4,5.01,000.00,025.7,024.5,000.0,034.2,027.1,17.0,0000.0,0010.10,0002.84,0002.03
2023-11-04 13:18:00,SystemResetWarning,0834.4,5.00,000.00,025.7,024.6,000.0,034.2,027.1,16.9,0000.0,0010.08,0002.83,0002.02
2023-11-04 13:19:00,SystemResetWarning,0834.4,5.00,000.00,025.7,024.6,000.0,034.2,027.1,17.2,0000.0,0010.12,0002.85,0002.01
2023-11-04 13:20:00,SystemResetWarning,0834.4,5.00,000.00,025.7,024.6,000.0,034.2,027.1,17.5,0000.0,0010.10,0002.86,0002.02
2023-11-04 13:21:00,SystemResetWarning,0834.4,5.00,000.00,025.7,024.6,000.0,034.2,027.1,17.3,0000.0,0009.63,0002.85,0002.02
2023-11-04 13:22:00,SystemResetWarning,0834.5,4.99,000.00,025.7,024.6,000.0,034.2,027.2,17.1,0000.0,0009.22,0002.87,0002.02
2023-11-04 13:23:00,SystemResetWarning,0834.5,5.00,000.00,025.7,024.6,000.0,034.2,027.1,17.2,0000.0,0008.40,0002.84,0001.99
2023-11-04 13:24:00,SystemResetWarning,0834.5,4.99,000.00,025.7,024.5,000.0,034.2,027.1,17.5,0000.0,0007.93,0002.82,0001.95
2023-11-04 13:25:00,SystemResetWarning,0834.5,5.01,000.00,025.7,024.5,000.0,034.2,027.1,17.6,0000.0,0007.88,0002.84,0001.94
2023-11-04 13:26:00,SystemResetWarning,0834.5,5.00,000.00,025.7,024.5,000.0,034.2,027.0,16.9,0000.0,0007.38,0002.78,0001.91
2023-11-04 13:27:00,SystemResetWarning,0834.5,5.01,000.00,025.7,024.5,000.0,034.1,027.0,16.8,0000.0,0007.08,0002.74,0001.88
2023-11-04 13:28:00,SystemResetWarning,0834.5,5.00,000.00,025.7,024.4,000.0,034.1,027.0,16.8,0000.0,0006.30,0002.67,0001.87
2023-11-04 13:29:00,SystemResetWarning,0834.5,4.99,000.00,025.7,024.4,000.0,034.1,027.1,16.7,0000.0,0005.90,0002.59,0001.86
2023-11-04 13:30:00,SystemResetWarning,0834.4,5.00,000.00,025.7,024.4,000.0,034.1,027.1,17.1,0000.0,0006.18,0002.65,0001.86
2023-11-04 13:31:00,SystemResetWarning,0834.4,5.00,000.00,025.7,024.5,000.0,034.1,027.0,17.1,0000.0,0006.04,0002.63,0001.85
2023-11-04 13:32:00,SystemResetWarning,0834.4,5.01,000.00,025.7,024.5,000.0,034.1,027.1,17.0,0000.0,0005.94,0002.61,0001.84
2023-11-04 13:33:00,SystemResetWarning,0834.4,5.01,000.00,025.7,024.5,000.0,034.1,027.1,17.1,0000.0,0005.86,0002.59,0001.83
2023-11-04 13:34:00,SystemResetWarning,0834.5,5.00,000.00,025.7,024.5,000.0,034.1,027.1,17.1,0000.0,0005.72,0002.63,0001.84
2023-11-04 13:35:00,SystemResetWarning,0834.5,5.00,000.00,025.6,024.5,000.0,034.1,027.0,17.0,0000.0,0005.40,0002.60,0001.83
2023-11-04 13:36:00,SystemResetWarning,0834.5,5.00,000.00,025.6,024.4,000.0,034.1,027.0,17.1,0000.0,0005.16,0002.50,0001.79
2023-11-04 13:37:00,SystemResetWarning,0834.5,4.99,000.00,025.6,024.4,000.0,034.1,026.9,17.0,0000.0,0004.93,0002.42,0001.76
2023-11-04 13:38:00,SystemResetWarning,0834.5,4.99,000.00,025.6,024.4,000.0,034.1,026.9,16.9,0000.0,0003.85,0002.41,0001.76
2023-11-04 13:39:00,SystemResetWarning,0834.5,5.00,000.00,025.6,024.4,000.0,034.1,026.9,16.8,0000.0,0004.05,0002.42,0001.76
2023-11-04 13:40:00,SystemResetWarning,0834.5,5.00,000.00,025.6,024.4,000.0,034.1,026.9,16.9,0000.0,0004.17,0002.48,0001.76
2023-11-04 13:41:00,SystemResetWarning,0834.4,5.02,000.00,025.6,024.4,000.0,034.0,026.9,17.0,0000.0,0004.15,0002.45,0001.76
2023-11-04 13:42:00,SystemResetWarning,0834.4,5.00,000.00,025.6,024.4,000.0,034.0,026.9,17.3,0000.0,0004.44,0002.38,0001.75
2023-11-04 13:43:00,SystemResetWarning,0834.4,5.00,000.00,025.6,024.4,000.0,034.0,026.9,17.2,0000.0,0005.33,0002.38,0001.76
2023-11-04 13:44:00,SystemResetWarning,0834.5,4.99,000.00,025.6,024.4,000.0,034.0,026.9,17.1,0000.0,0005.34,0002.39,0001.77
2023-11-04 13:45:00,SystemResetWarning,0834.5,5.01,000.00,025.5,024.4,000.0,034.0,026.8,17.1,0000.0,0007.12,0002.37,0001.77
2023-11-04 13:46:00,SystemResetWarning,0834.5,5.01,000.00,025.5,024.3,000.0,034.0,026.9,17.2,0000.0,0007.59,0002.36,0001.78
2023-11-04 13:47:00,SystemResetWarning,0834.5,5.00,000.00,025.5,024.3,000.0,034.0,026.8,17.3,0000.0,0007.64,0002.43,0001.79
2023-11-04 13:48:00,SystemResetWarning,0834.5,5.00,000.00,025.5,024.3,000.0,034.0,026.8,17.4,0000.0,0007.73,0002.51,0001.82
2023-11-04 13:49:00,SystemResetWarning,0834.5,5.01,000.00,025.5,024.3,000.0,034.0,026.9,17.6,0000.0,0007.81,0002.58,0001.84
2023-11-04 13:50:00,SystemResetWarning,0834.9,5.00,000.00,025.5,024.3,000.0,034.0,026.9,17.9,0000.0,0007.67,0002.59,0001.87
2023-11-04 13:51:00,SystemResetWarning,0835.1,4.99,000.00,025.5,024.4,000.0,034.0,026.9,18.0,0000.0,0007.78,0002.65,0001.91
2023-11-04 13:52:00,SystemResetWarning,0835.0,4.99,000.00,025.5,024.4,000.0,034.0,026.9,18.0,0000.0,0008.51,0002.81,0001.96
2023-11-04 13:53:00,SystemResetWarning,0835.1,5.00,000.00,025.5,024.4,000.0,033.9,026.9,18.1,0000.0,0008.51,0002.91,0002.01
2023-11-04 13:54:00,SystemResetWarning,0835.0,4.99,000.00,025.5,024.4,000.0,033.9,026.9,18.1,0000.0,0008.13,0002.99,0002.03
2023-11-04 13:55:00,SystemResetWarning,0835.1,4.99,000.00,025.5,024.4,000.0,034.0,026.9,17.6,0000.0,0008.12,0003.03,0002.05
2023-11-04 13:56:00,SystemResetWarning,0835.2,5.00,000.00,025.5,024.4,000.0,034.0,026.9,17.5,0000.0,0007.62,0003.09,0002.06
2023-11-04 13:57:00,SystemResetWarning,0835.0,5.01,000.00,025.5,024.4,000.0,033.9,026.9,17.6,0000.0,0007.52,0003.09,0002.08
2023-11-04 13:58:00,SystemResetWarning,0834.8,5.00,000.00,025.5,024.3,000.0,033.9,026.9,17.8,0000.0,0008.30,0003.10,0002.10
2023-11-04 13:59:00,SystemResetWarning,0834.8,4.98,000.00,025.5,024.3,000.0,033.9,026.9,17.9,0000.0,0008.36,0003.08,0002.11
